Regional Weather Roundup
Issued by NWS

Home | Current Version | Previous Version | Graphics & Text | Print | Product List | Glossary On
Versions: 1 2 3 4 5 6 7 8 9 10 11 12 13 14 15 16 17 18 19 20 21 22 23 24 25 26 27 28 29 30 31 32 33 34 35 36 37 38 39 40 41 42 43 44 45 46 47 48 49 50
000
ASUS45 KSLC 221810
RWRUT

UTAH REGIONAL WEATHER ROUNDUP
NATIONAL WEATHER SERVICE SALT LAKE CITY UT
1200 PM MDT MON SEP 22 2014

UTZ001>011-023>025-221900-

NORTHERN UTAH

CITY           SKY/WX    TMP DP  RH WIND       PRES   REMARKS
HILL AFB       SUNNY     70  54  56 SW7       30.19F
LOGAN          MOSUNNY   66  56  70 N5        30.18F
OGDEN          MOSUNNY   70  54  56 S8        30.17F
PROVO AIRPORT  MOSUNNY   70  52  52 CALM      30.21S
SALT LAKE CITY MOSUNNY   71  53  52 SE5       30.15F
VERNAL         MOSUNNY   63  52  67 S3        30.23F
WENDOVER       MOSUNNY   64  52  63 E8        30.18S
HEBER CITY     MOSUNNY   68  50  52 W3        30.23F
WEST JORDAN    SUNNY     72  52  49 SE13      30.18F

$$

UTZ012>022-026-027-221900-

SOUTHERN UTAH

CITY           SKY/WX    TMP DP  RH WIND       PRES   REMARKS
BRYCE CANYON   PTSUNNY   62  48  60 SE10      30.38F
CEDAR CITY     SUNNY     73  42  32 SW13      30.25S
MILFORD        SUNNY     70  57  63 S16       30.21S
MOAB/CYNLANDS  SUNNY     73  56  54 VRB3      30.18F
PRICE          CLOUDY    63  53  70 VRB3      30.28S
ST GEORGE      PTCLDY    79  54  41 CALM      30.13F
KANAB            N/A     73  48  40 SW7       30.27F

$$

REGIONAL REPORTS     COLORADO/ARIZONA

CITY           SKY/WX    TMP DP  RH WIND       PRES   REMARKS
CRAIG, CO      LGT RAIN  60  50  69 CALM      30.30S
GRAND JUNCTION MOSUNNY   71  55  56 E3        30.22F
RIFLE          PTSUNNY   62  56  80 NE6       30.29S
MONTROSE       MOSUNNY   73  56  54 W5        30.27F
CORTEZ         MOSUNNY   71  57  61 VRB5      30.30F
PAGE, AZ       SUNNY     79  49  34 VRB3      30.20S
GRAND CANYON   SUNNY     70  44  39 SW14G25   30.35F
KINGMAN        SUNNY     86  43  22 W8        30.12F
FLAGSTAFF      MOSUNNY   69  45  41 VRB3      30.38F

$$

REGIONAL REPORTS    NEVADA/IDAHO/WYOMING

CITY           SKY/WX    TMP DP  RH WIND       PRES   REMARKS
LAS VEGAS, NV  SUNNY     85  50  29 SW6       30.02S
ELY            MOSUNNY   68  48  48 S8        30.26F
ELKO           MOSUNNY   67  45  45 S5        30.19S
POCATELLO, ID  MOSUNNY   68  54  60 SW8       30.16S
BURLEY         PTSUNNY   70  51  51 SE3       30.12F
EVANSTON, WY   MOSUNNY   61  45  55 SW16      30.28F
ROCK SPRINGS   CLOUDY    56  50  80 CALM      30.28F

$$


USA.gov is the U.S. government's official web portal to all federal, state and local government web resources and services.